| time (UTC) | temp F | wind direction | speed MPH | gust MPH | rain 1hr in | rain 24hr in | rain mn in | humidity % | barometer mb |
| 20260502185546 | 58 | 113 | 2.0 | 9.0 | 0.00 | 0.00 | 0.00 | 25 | 1023.2 |
| 20260502185047 | 58 | 87 | 3.0 | 9.0 | 0.00 | 0.00 | 0.00 | 24 | 1023.3 |
| 20260502184601 | 58 | 107 | 2.0 | 9.0 | 0.00 | 0.00 | 0.00 | 24 | 1023.3 |
| 20260502184044 | 58 | 63 | 2.0 | 9.0 | 0.00 | 0.00 | 0.00 | 24 | 1023.3 |
| 20260502183547 | 58 | 164 | 1.0 | 9.0 | 0.00 | 0.00 | 0.00 | 25 | 1023.4 |
| 20260502183111 | 57 | 0 | 0.0 | 10.0 | 0.00 | 0.00 | 0.00 | 25 | 1023.4 |
| 20260502182545 | 57 | 93 | 4.0 | 10.0 | 0.00 | 0.00 | 0.00 | 24 | 1023.6 |
| 20260502182044 | 58 | 100 | 3.0 | 7.0 | 0.00 | 0.00 | 0.00 | 24 | 1023.6 |
| 20260502181554 | 58 | 63 | 2.0 | 7.0 | 0.00 | 0.00 | 0.00 | 24 | 1023.7 |
| 20260502181044 | 57 | 170 | 2.0 | 9.0 | 0.00 | 0.00 | 0.00 | 25 | 1023.7 |
| 20260502180550 | 56 | 121 | 2.0 | 9.0 | 0.00 | 0.00 | 0.00 | 25 | 1023.8 |
| 20260502164047 | 54 | 86 | 1.0 | 5.0 | 0.00 | 0.00 | 0.00 | 25 | 1024.1 |
| 20260502163549 | 53 | 0 | 0.0 | 5.0 | 0.00 | 0.00 | 0.00 | 25 | 1024.1 |
| 20260502163054 | 53 | 115 | 1.0 | 5.0 | 0.00 | 0.00 | 0.00 | 27 | 1024.2 |
| 20260502162547 | 53 | 0 | 0.0 | 4.0 | 0.00 | 0.00 | 0.00 | 26 | 1024.2 |
| 20260502162048 | 52 | 202 | 0.0 | 3.0 | 0.00 | 0.00 | 0.00 | 25 | 1024.2 |
| 20260502161618 | 52 | 0 | 1.0 | 5.0 | 0.00 | 0.00 | 0.00 | 25 | 1024.2 |
| 20260502161050 | 52 | 161 | 1.0 | 6.0 | 0.00 | 0.00 | 0.00 | 27 | 1024.2 |
| 20260502160547 | 52 | 0 | 0.0 | 6.0 | 0.00 | 0.00 | 0.00 | 25 | 1024.3 |
| 20260502152050 | 51 | 240 | 0.0 | 4.0 | 0.00 | 0.01 | 0.00 | 25 | 1024.5 |
| 20260502151546 | 50 | 240 | 0.0 | 4.0 | 0.00 | 0.01 | 0.00 | 27 | 1024.5 |
| 20260502151048 | 50 | 0 | 1.0 | 4.0 | 0.00 | 0.01 | 0.00 | 27 | 1024.6 |
| 20260502150547 | 50 | 0 | 0.0 | 2.0 | 0.00 | 0.01 | 0.00 | 27 | 1024.6 |
| 20260502130547 | 39 | 0 | 1.0 | 7.0 | 0.00 | 0.03 | 0.00 | 50 | 1024.4 |
| 20260502123547 | 36 | 232 | 0.0 | 7.0 | 0.00 | 0.03 | 0.00 | 54 | 1024.3 |
| 20260502123052 | 36 | 221 | 1.0 | 7.0 | 0.00 | 0.03 | 0.00 | 54 | 1024.3 |
| 20260502122546 | 35 | 0 | 1.0 | 5.0 | 0.00 | 0.03 | 0.00 | 55 | 1024.2 |
| 20260502122047 | 35 | 267 | 0.0 | 5.0 | 0.00 | 0.03 | 0.00 | 56 | 1024.2 |
| 20260502121557 | 35 | 235 | 0.0 | 3.0 | 0.00 | 0.03 | 0.00 | 56 | 1024.2 |
| 20260502121045 | 34 | 236 | 0.0 | 5.0 | 0.00 | 0.03 | 0.00 | 56 | 1024.1 |
| 20260502120547 | 34 | 0 | 0.0 | 5.0 | 0.00 | 0.03 | 0.00 | 56 | 1024.0 |
| 20260502115544 | 34 | 225 | 0.0 | 3.0 | 0.00 | 0.03 | 0.00 | 56 | 1024.1 |
| 20260502115047 | 34 | 0 | 0.0 | 3.0 | 0.00 | 0.03 | 0.00 | 57 | 1024.1 |
| 20260502114557 | 35 | 0 | 0.0 | 7.0 | 0.00 | 0.03 | 0.00 | 56 | 1024.1 |
| 20260502114048 | 35 | 0 | 0.0 | 8.0 | 0.00 | 0.03 | 0.00 | 56 | 1024.0 |
| 20260502113548 | 35 | 0 | 0.0 | 8.0 | 0.00 | 0.03 | 0.00 | 56 | 1024.0 |
| 20260502113054 | 35 | 242 | 0.0 | 4.0 | 0.00 | 0.03 | 0.00 | 57 | 1024.0 |
| 20260502112547 | 35 | 0 | 0.0 | 4.0 | 0.00 | 0.03 | 0.00 | 56 | 1024.1 |
| 20260502112047 | 35 | 360 | 0.0 | 4.0 | 0.00 | 0.03 | 0.00 | 57 | 1024.1 |
| 20260502111602 | 35 | 0 | 1.0 | 4.0 | 0.00 | 0.03 | 0.00 | 57 | 1024.1 |
| 20260502111047 | 35 | 232 | 1.0 | 7.0 | 0.00 | 0.03 | 0.00 | 57 | 1024.2 |
| 20260502110547 | 34 | 0 | 0.0 | 7.0 | 0.00 | 0.03 | 0.00 | 57 | 1024.1 |
| 20260502110054 | 34 | 0 | 0.0 | 7.0 | 0.00 | 0.03 | 0.00 | 58 | 1024.1 |
| 20260502105547 | 34 | 0 | 0.0 | 2.0 | 0.00 | 0.03 | 0.00 | 57 | 1024.1 |
| 20260502105046 | 34 | 0 | 0.0 | 3.0 | 0.00 | 0.03 | 0.00 | 57 | 1023.9 |
| 20260502104553 | 34 | 250 | 0.0 | 3.0 | 0.00 | 0.03 | 0.00 | 57 | 1023.9 |
| 20260502104047 | 34 | 250 | 0.0 | 4.0 | 0.00 | 0.03 | 0.00 | 58 | 1024.1 |
| 20260502103547 | 34 | 250 | 0.0 | 4.0 | 0.00 | 0.03 | 0.00 | 58 | 1024.0 |
| 20260502103047 | 34 | 0 | 0.0 | 1.0 | 0.00 | 0.03 | 0.00 | 58 | 1024.0 |
| 20260502102544 | 34 | 0 | 0.0 | 4.0 | 0.00 | 0.03 | 0.00 | 59 | 1024.1 |
| 20260502102048 | 34 | 0 | 0.0 | 4.0 | 0.00 | 0.03 | 0.00 | 58 | 1024.0 |
| 20260502101554 | 35 | 0 | 0.0 | 4.0 | 0.00 | 0.03 | 0.00 | 58 | 1024.0 |
| 20260502101047 | 35 | 0 | 0.0 | 2.0 | 0.00 | 0.03 | 0.00 | 58 | 1024.0 |
| 20260502100548 | 35 | 0 | 0.0 | 2.0 | 0.00 | 0.03 | 0.00 | 58 | 1024.0 |
| 20260502091047 | 35 | 0 | 0.0 | 4.0 | 0.00 | 0.03 | 0.00 | 60 | 1023.9 |
| 20260502090545 | 35 | 0 | 0.0 | 6.0 | 0.00 | 0.03 | 0.00 | 60 | 1023.9 |
| 20260502071050 | 35 | 0 | 0.0 | 3.0 | 0.00 | 0.03 | 0.00 | 60 | 1024.4 |
| 20260502070548 | 35 | 0 | 0.0 | 5.0 | 0.00 | 0.03 | 0.00 | 59 | 1024.5 |
| 20260502065548 | 36 | 0 | 0.0 | 5.0 | 0.00 | 0.03 | 0.00 | 59 | 1024.6 |
| 20260502065048 | 35 | 0 | 0.0 | 2.0 | 0.00 | 0.03 | 0.00 | 59 | 1024.6 |
| 20260502064548 | 35 | 0 | 0.0 | 0.0 | 0.00 | 0.03 | 0.00 | 59 | 1024.6 |
| 20260502064044 | 35 | 0 | 0.0 | 1.0 | 0.00 | 0.03 | 0.00 | 59 | 1024.6 |
| 20260502063544 | 35 | 0 | 0.0 | 2.0 | 0.00 | 0.03 | 0.00 | 60 | 1024.6 |
| 20260502063055 | 36 | 0 | 0.0 | 2.0 | 0.00 | 0.03 | 0.00 | 59 | 1024.6 |
| 20260502062547 | 36 | 0 | 0.0 | 0.0 | 0.00 | 0.03 | 0.00 | 58 | 1024.6 |
| 20260502062047 | 37 | 0 | 0.0 | 0.0 | 0.00 | 0.03 | 0.00 | 58 | 1024.6 |
| 20260502061554 | 37 | 0 | 0.0 | 0.0 | 0.00 | 0.03 | 0.00 | 57 | 1024.6 |
| 20260502061047 | 37 | 0 | 0.0 | 2.0 | 0.00 | 0.03 | 0.00 | 58 | 1024.6 |
| 20260502060550 | 37 | 0 | 0.0 | 2.0 | 0.00 | 0.03 | 0.00 | 59 | 1024.6 |
| 20260502060055 | 37 | 0 | 0.0 | 2.0 | 0.00 | 0.03 | 0.00 | 60 | 1024.7 |
| 20260502055548 | 37 | 0 | 0.0 | 1.0 | 0.00 | 0.03 | 0.03 | 60 | 1024.7 |
| 20260502055046 | 37 | 0 | 0.0 | 0.0 | 0.00 | 0.03 | 0.03 | 61 | 1024.7 |
| 20260502054548 | 36 | 0 | 0.0 | 1.0 | 0.00 | 0.03 | 0.03 | 62 | 1024.7 |
| 20260502054047 | 36 | 0 | 0.0 | 1.0 | 0.00 | 0.03 | 0.03 | 62 | 1024.7 |
| 20260502053547 | 36 | 0 | 0.0 | 0.0 | 0.00 | 0.03 | 0.03 | 61 | 1024.6 |
| 20260502053102 | 36 | 0 | 0.0 | 0.0 | 0.00 | 0.03 | 0.03 | 62 | 1024.5 |
| 20260502052547 | 36 | 0 | 0.0 | 0.0 | 0.00 | 0.03 | 0.03 | 62 | 1024.6 |
| 20260502052045 | 36 | 0 | 0.0 | 0.0 | 0.00 | 0.03 | 0.03 | 62 | 1024.6 |
| 20260502051603 | 36 | 0 | 0.0 | 0.0 | 0.00 | 0.03 | 0.03 | 62 | 1024.6 |
| 20260502051044 | 36 | 0 | 0.0 | 0.0 | 0.00 | 0.03 | 0.03 | 61 | 1024.6 |
| 20260502050544 | 36 | 0 | 0.0 | 0.0 | 0.00 | 0.03 | 0.03 | 60 | 1024.6 |
| 20260502050056 | 36 | 0 | 0.0 | 0.0 | 0.00 | 0.03 | 0.03 | 60 | 1024.5 |
| 20260502045543 | 36 | 0 | 0.0 | 0.0 | 0.00 | 0.03 | 0.03 | 59 | 1024.5 |
| 20260502045050 | 37 | 0 | 0.0 | 0.0 | 0.00 | 0.03 | 0.03 | 60 | 1024.6 |
| 20260502044552 | 37 | 0 | 0.0 | 0.0 | 0.00 | 0.03 | 0.03 | 60 | 1024.5 |
| 20260502044050 | 37 | 0 | 0.0 | 2.0 | 0.00 | 0.03 | 0.03 | 58 | 1024.7 |
| 20260502043545 | 37 | 0 | 0.0 | 2.0 | 0.00 | 0.03 | 0.03 | 61 | 1024.6 |
| 20260502043100 | 37 | 0 | 0.0 | 0.0 | 0.00 | 0.03 | 0.03 | 60 | 1024.5 |
| 20260502042551 | 36 | 0 | 0.0 | 0.0 | 0.00 | 0.03 | 0.03 | 58 | 1024.5 |
| 20260502042048 | 36 | 0 | 0.0 | 0.0 | 0.00 | 0.03 | 0.03 | 55 | 1024.5 |
| 20260502041621 | 36 | 0 | 0.0 | 0.0 | 0.00 | 0.03 | 0.03 | 54 | 1024.4 |
| 20260502041047 | 36 | 0 | 0.0 | 0.0 | 0.00 | 0.03 | 0.03 | 53 | 1024.4 |
| 20260502040547 | 36 | 0 | 0.0 | 0.0 | 0.00 | 0.03 | 0.03 | 53 | 1024.2 |
| 20260502040057 | 36 | 0 | 0.0 | 0.0 | 0.00 | 0.03 | 0.03 | 53 | 1024.2 |
| 20260502035548 | 36 | 0 | 0.0 | 0.0 | 0.00 | 0.03 | 0.03 | 51 | 1024.3 |
| 20260502035048 | 36 | 0 | 0.0 | 0.0 | 0.00 | 0.03 | 0.03 | 52 | 1024.2 |
| 20260502034552 | 36 | 0 | 0.0 | 0.0 | 0.00 | 0.03 | 0.03 | 50 | 1024.2 |
| 20260502034046 | 36 | 0 | 0.0 | 0.0 | 0.00 | 0.03 | 0.03 | 52 | 1024.1 |
| 20260502033547 | 36 | 0 | 0.0 | 0.0 | 0.00 | 0.03 | 0.03 | 52 | 1024.0 |
| 20260502033105 | 36 | 0 | 0.0 | 0.0 | 0.00 | 0.03 | 0.03 | 54 | 1023.9 |
| 20260502032548 | 36 | 0 | 0.0 | 0.0 | 0.00 | 0.03 | 0.03 | 53 | 1023.8 |
| 20260502032047 | 36 | 0 | 0.0 | 0.0 | 0.00 | 0.03 | 0.03 | 53 | 1023.8 |
| 20260502031553 | 36 | 0 | 0.0 | 0.0 | 0.00 | 0.03 | 0.03 | 53 | 1023.6 |
| 20260502031050 | 36 | 0 | 0.0 | 1.0 | 0.00 | 0.03 | 0.03 | 53 | 1023.5 |
| 20260502030547 | 36 | 0 | 0.0 | 1.0 | 0.00 | 0.03 | 0.03 | 52 | 1023.5 |
| 20260502030055 | 36 | 0 | 0.0 | 1.0 | 0.00 | 0.03 | 0.03 | 52 | 1023.4 |
| 20260502025547 | 36 | 27 | 0.0 | 0.0 | 0.00 | 0.03 | 0.03 | 51 | 1023.3 |
| 20260502025047 | 37 | 0 | 0.0 | 0.0 | 0.00 | 0.03 | 0.03 | 51 | 1023.2 |
| 20260502024551 | 37 | 0 | 0.0 | 0.0 | 0.00 | 0.03 | 0.03 | 51 | 1023.2 |
| 20260502024048 | 37 | 0 | 0.0 | 0.0 | 0.00 | 0.03 | 0.03 | 51 | 1023.2 |
| 20260502023547 | 37 | 0 | 0.0 | 0.0 | 0.00 | 0.03 | 0.03 | 50 | 1023.0 |
| 20260502023057 | 38 | 0 | 0.0 | 0.0 | 0.00 | 0.03 | 0.03 | 51 | 1022.9 |
| 20260502022547 | 38 | 0 | 0.0 | 0.0 | 0.00 | 0.03 | 0.03 | 51 | 1022.9 |
| 20260502022052 | 39 | 0 | 0.0 | 0.0 | 0.00 | 0.03 | 0.03 | 48 | 1022.8 |
| 20260502021555 | 39 | 0 | 0.0 | 0.0 | 0.00 | 0.03 | 0.03 | 48 | 1022.8 |
| 20260502021048 | 39 | 0 | 0.0 | 0.0 | 0.00 | 0.03 | 0.03 | 47 | 1022.7 |
| 20260502020547 | 40 | 0 | 0.0 | 0.0 | 0.00 | 0.03 | 0.03 | 47 | 1022.7 |
| 20260502020054 | 41 | 0 | 0.0 | 0.0 | 0.00 | 0.03 | 0.03 | 46 | 1022.7 |
| 20260502015547 | 41 | 0 | 0.0 | 0.0 | 0.00 | 0.04 | 0.03 | 45 | 1022.6 |
| 20260502015047 | 42 | 0 | 0.0 | 0.0 | 0.00 | 0.04 | 0.03 | 45 | 1022.6 |
| 20260502014553 | 42 | 0 | 0.0 | 0.0 | 0.00 | 0.04 | 0.03 | 44 | 1022.5 |
| 20260502014047 | 43 | 0 | 0.0 | 0.0 | 0.00 | 0.04 | 0.03 | 43 | 1022.5 |
| 20260502013549 | 44 | 0 | 0.0 | 0.0 | 0.00 | 0.04 | 0.03 | 42 | 1022.4 |
| 20260502013052 | 44 | 0 | 0.0 | 0.0 | 0.00 | 0.04 | 0.03 | 40 | 1022.3 |
| 20260502012548 | 45 | 0 | 0.0 | 0.0 | 0.00 | 0.04 | 0.03 | 40 | 1022.3 |
| 20260502012047 | 45 | 0 | 0.0 | 0.0 | 0.00 | 0.04 | 0.03 | 40 | 1022.2 |
| 20260502011550 | 45 | 0 | 0.0 | 0.0 | 0.00 | 0.04 | 0.03 | 38 | 1022.2 |
| 20260502011050 | 45 | 0 | 0.0 | 0.0 | 0.00 | 0.04 | 0.03 | 35 | 1022.1 |
| 20260502010548 | 46 | 0 | 0.0 | 0.0 | 0.00 | 0.04 | 0.03 | 37 | 1022.1 |
| 20260502010057 | 46 | 0 | 0.0 | 0.0 | 0.00 | 0.04 | 0.03 | 36 | 1022.0 |
| 20260502005546 | 47 | 0 | 0.0 | 0.0 | 0.00 | 0.04 | 0.03 | 34 | 1022.0 |
| 20260502005049 | 47 | 0 | 0.0 | 3.0 | 0.00 | 0.04 | 0.03 | 33 | 1022.0 |
| 20260502004555 | 47 | 0 | 0.0 | 6.0 | 0.00 | 0.04 | 0.03 | 32 | 1022.0 |
| 20260502004047 | 47 | 0 | 0.0 | 6.0 | 0.00 | 0.04 | 0.03 | 32 | 1022.0 |
| 20260502003548 | 48 | 0 | 0.0 | 6.0 | 0.00 | 0.04 | 0.03 | 32 | 1021.9 |
| 20260502003051 | 48 | 0 | 0.0 | 9.0 | 0.00 | 0.04 | 0.03 | 31 | 1021.8 |
| 20260502002547 | 48 | 46 | 3.0 | 9.0 | 0.00 | 0.04 | 0.03 | 30 | 1021.8 |
| 20260502002047 | 49 | 65 | 2.0 | 8.0 | 0.00 | 0.04 | 0.03 | 30 | 1021.8 |
| 20260502001559 | 49 | 40 | 3.0 | 8.0 | 0.00 | 0.04 | 0.03 | 29 | 1021.8 |
| 20260502001046 | 49 | 71 | 0.0 | 6.0 | 0.00 | 0.04 | 0.03 | 31 | 1021.8 |
| 20260502000544 | 49 | 82 | 2.0 | 6.0 | 0.00 | 0.04 | 0.03 | 30 | 1021.7 |
| 20260502000050 | 49 | 82 | 0.0 | 3.0 | 0.00 | 0.04 | 0.03 | 33 | 1021.6 |
| 20260501235547 | 49 | 0 | 0.0 | 4.0 | 0.00 | 0.04 | 0.03 | 33 | 1021.6 |
| 20260501235048 | 48 | 0 | 0.0 | 4.0 | 0.00 | 0.04 | 0.03 | 31 | 1021.5 |
| 20260501234548 | 48 | 0 | 1.0 | 4.0 | 0.00 | 0.04 | 0.03 | 32 | 1021.6 |
| 20260501234049 | 48 | 0 | 0.0 | 3.0 | 0.00 | 0.04 | 0.03 | 31 | 1021.6 |
| 20260501233547 | 48 | 55 | 1.0 | 3.0 | 0.00 | 0.04 | 0.03 | 32 | 1021.6 |
| 20260501233104 | 48 | 55 | 0.0 | 2.0 | 0.00 | 0.04 | 0.03 | 33 | 1021.6 |
| 20260501232547 | 48 | 0 | 0.0 | 7.0 | 0.00 | 0.04 | 0.03 | 31 | 1021.7 |
| 20260501232047 | 49 | 0 | 0.0 | 7.0 | 0.00 | 0.04 | 0.03 | 32 | 1021.6 |
| 20260501231610 | 49 | 52 | 3.0 | 9.0 | 0.00 | 0.04 | 0.03 | 33 | 1021.6 |
| 20260501231048 | 50 | 30 | 4.0 | 9.0 | 0.00 | 0.04 | 0.03 | 32 | 1021.5 |
| 20260501230548 | 50 | 0 | 1.0 | 8.0 | 0.00 | 0.04 | 0.03 | 32 | 1021.5 |
| 20260501230051 | 50 | 55 | 0.0 | 16.0 | 0.00 | 0.04 | 0.03 | 33 | 1021.4 |
| 20260501225548 | 50 | 41 | 4.0 | 16.0 | 0.00 | 0.05 | 0.03 | 32 | 1021.4 |
| 20260501225048 | 50 | 28 | 1.0 | 8.0 | 0.00 | 0.05 | 0.03 | 33 | 1021.2 |
| 20260501224551 | 50 | 55 | 2.0 | 8.0 | 0.00 | 0.05 | 0.03 | 32 | 1021.4 |
| 20260501224047 | 50 | 0 | 0.0 | 6.0 | 0.00 | 0.05 | 0.03 | 36 | 1021.4 |
| 20260501223544 | 50 | 57 | 1.0 | 6.0 | 0.00 | 0.05 | 0.03 | 35 | 1021.3 |
| 20260501223111 | 49 | 0 | 3.0 | 11.0 | 0.00 | 0.05 | 0.03 | 35 | 1021.3 |
| 20260501222547 | 49 | 82 | 3.0 | 11.0 | 0.00 | 0.05 | 0.03 | 34 | 1021.4 |
| 20260501222048 | 49 | 86 | 0.0 | 4.0 | 0.00 | 0.05 | 0.03 | 35 | 1021.4 |
| 20260501221551 | 49 | 0 | 1.0 | 5.0 | 0.00 | 0.05 | 0.03 | 35 | 1021.4 |
| 20260501221047 | 49 | 0 | 1.0 | 5.0 | 0.00 | 0.05 | 0.03 | 35 | 1021.5 |
| 20260501220547 | 49 | 74 | 0.0 | 7.0 | 0.00 | 0.05 | 0.03 | 35 | 1021.5 |
| 20260501220052 | 49 | 92 | 1.0 | 13.0 | 0.00 | 0.05 | 0.03 | 36 | 1021.5 |
| 20260501215546 | 49 | 78 | 2.0 | 13.0 | 0.00 | 0.05 | 0.03 | 37 | 1021.5 |
| 20260501215047 | 49 | 36 | 4.0 | 13.0 | 0.00 | 0.05 | 0.03 | 37 | 1021.6 |
| 20260501214555 | 49 | 130 | 1.0 | 8.0 | 0.00 | 0.05 | 0.03 | 37 | 1021.6 |
| 20260501214045 | 48 | 78 | 1.0 | 8.0 | 0.00 | 0.05 | 0.03 | 39 | 1021.6 |
| 20260501213546 | 48 | 44 | 2.0 | 11.0 | 0.00 | 0.05 | 0.03 | 38 | 1021.8 |
| 20260501213050 | 48 | 50 | 3.0 | 11.0 | 0.00 | 0.05 | 0.03 | 37 | 1021.7 |
| 20260501212548 | 50 | 44 | 6.0 | 11.0 | 0.00 | 0.05 | 0.03 | 36 | 1021.8 |
| 20260501212049 | 51 | 92 | 3.0 | 10.0 | 0.00 | 0.05 | 0.03 | 36 | 1021.7 |
| 20260501211552 | 51 | 0 | 1.0 | 9.0 | 0.00 | 0.05 | 0.03 | 39 | 1021.6 |
| 20260501211048 | 50 | 0 | 0.0 | 9.0 | 0.00 | 0.05 | 0.03 | 38 | 1021.7 |
| 20260501210548 | 50 | 78 | 3.0 | 9.0 | 0.00 | 0.05 | 0.03 | 39 | 1021.7 |
| 20260501210058 | 48 | 52 | 0.0 | 6.0 | 0.00 | 0.05 | 0.03 | 42 | 1021.7 |
| 20260501205547 | 48 | 51 | 0.0 | 6.0 | 0.00 | 0.06 | 0.03 | 38 | 1021.8 |
| 20260501205048 | 48 | 42 | 3.0 | 7.0 | 0.00 | 0.06 | 0.03 | 39 | 1021.9 |
| 20260501204614 | 49 | 0 | 1.0 | 7.0 | 0.00 | 0.06 | 0.03 | 37 | 1021.9 |
| 20260501204047 | 49 | 57 | 2.0 | 10.0 | 0.00 | 0.06 | 0.03 | 38 | 1021.8 |
| 20260501203547 | 49 | 0 | 1.0 | 10.0 | 0.00 | 0.06 | 0.03 | 38 | 1021.8 |
| 20260501203050 | 49 | 71 | 4.0 | 12.0 | 0.00 | 0.06 | 0.03 | 39 | 1021.8 |
| 20260501202547 | 49 | 5 | 4.0 | 12.0 | 0.00 | 0.06 | 0.03 | 41 | 1021.9 |
| 20260501202047 | 47 | 144 | 1.0 | 7.0 | 0.00 | 0.06 | 0.03 | 42 | 1021.9 |
| 20260501201552 | 47 | 0 | 2.0 | 5.0 | 0.00 | 0.06 | 0.03 | 41 | 1022.0 |
| 20260501201044 | 47 | 133 | 0.0 | 5.0 | 0.00 | 0.06 | 0.03 | 40 | 1022.0 |
| 20260501200544 | 47 | 0 | 0.0 | 5.0 | 0.00 | 0.06 | 0.03 | 41 | 1021.9 |
| 20260501200054 | 47 | 0 | 0.0 | 5.0 | 0.00 | 0.06 | 0.03 | 41 | 1022.0 |
| 20260501195544 | 47 | 235 | 0.0 | 5.0 | 0.00 | 0.06 | 0.03 | 40 | 1021.9 |
| 20260501195047 | 48 | 0 | 1.0 | 9.0 | 0.00 | 0.06 | 0.03 | 41 | 1021.8 |
| 20260501194553 | 48 | 82 | 1.0 | 9.0 | 0.00 | 0.06 | 0.03 | 41 | 1021.9 |
| 20260501194043 | 48 | 0 | 0.0 | 8.0 | 0.00 | 0.06 | 0.03 | 42 | 1021.8 |
| 20260501193547 | 47 | 82 | 2.0 | 8.0 | 0.00 | 0.06 | 0.03 | 43 | 1021.7 |
| 20260501193051 | 47 | 0 | 1.0 | 8.0 | 0.00 | 0.06 | 0.03 | 43 | 1021.7 |
| 20260501192551 | 46 | 0 | 1.0 | 8.0 | 0.00 | 0.06 | 0.03 | 43 | 1021.9 |
| 20260501192048 | 47 | 0 | 2.0 | 11.0 | 0.00 | 0.06 | 0.03 | 38 | 1021.8 |
| 20260501191556 | 47 | 54 | 5.0 | 13.0 | 0.00 | 0.06 | 0.03 | 40 | 1021.9 |
| 20260501191049 | 48 | 63 | 3.0 | 13.0 | 0.00 | 0.06 | 0.03 | 40 | 1021.8 |
| 20260501190545 | 48 | 69 | 4.0 | 13.0 | 0.00 | 0.06 | 0.03 | 43 | 1021.8 |
| 20260501190046 | 48 | 0 | 0.0 | 6.0 | 0.00 | 0.06 | 0.03 | 42 | 1021.9 |